Year,Month,Day,Hour,Minute,Value (Times are PST for temperature in C)
2010,08,14,00,00,25.10
2010,08,14,00,01,25.10
2010,08,14,00,02,25.10
2010,08,14,00,03,25.10
2010,08,14,00,04,25.10
2010,08,14,00,05,25.10
2010,08,14,00,06,25.10
2010,08,14,00,07,25.10
2010,08,14,00,08,25.10
2010,08,14,00,09,25.10
2010,08,14,00,10,25.10
2010,08,14,00,11,25.10
2010,08,14,00,12,25.10
2010,08,14,00,13,25.10
2010,08,14,00,14,25.10
2010,08,14,00,15,25.10
2010,08,14,00,16,25.10
2010,08,14,00,17,25.00
2010,08,14,00,18,25.00
2010,08,14,00,19,25.00
2010,08,14,00,20,24.90
2010,08,14,00,21,24.90
2010,08,14,00,22,24.90
2010,08,14,00,23,24.90
2010,08,14,00,24,24.90
2010,08,14,00,25,24.90
2010,08,14,00,26,24.90
2010,08,14,00,27,24.90
2010,08,14,00,28,24.90
2010,08,14,00,29,24.90
2010,08,14,00,30,24.90
2010,08,14,00,31,24.90
2010,08,14,00,32,24.90
2010,08,14,00,33,24.90
2010,08,14,00,34,24.90
2010,08,14,00,35,24.80
2010,08,14,00,36,24.80
2010,08,14,00,37,24.70
2010,08,14,00,38,24.70
2010,08,14,00,39,24.70
2010,08,14,00,40,24.60
2010,08,14,00,41,24.50
2010,08,14,00,42,24.40
2010,08,14,00,43,24.30
2010,08,14,00,44,24.10
2010,08,14,00,45,24.10
2010,08,14,00,46,23.90
2010,08,14,00,47,23.80
2010,08,14,00,48,23.80
2010,08,14,00,49,23.70
2010,08,14,00,50,23.70
2010,08,14,00,51,23.70
2010,08,14,00,52,23.70
2010,08,14,00,53,23.70
2010,08,14,00,54,23.70
2010,08,14,00,55,23.70
2010,08,14,00,56,23.70
2010,08,14,00,57,23.70
2010,08,14,00,58,23.70
2010,08,14,00,59,23.70
2010,08,14,01,00,23.70
2010,08,14,01,01,23.70
2010,08,14,01,02,23.60
2010,08,14,01,03,23.60
2010,08,14,01,04,23.60
2010,08,14,01,05,23.60
2010,08,14,01,06,23.50
2010,08,14,01,07,23.40
2010,08,14,01,08,23.40
2010,08,14,01,09,23.30
2010,08,14,01,10,23.30
2010,08,14,01,11,23.30
2010,08,14,01,12,23.30
2010,08,14,01,13,23.30
2010,08,14,01,14,23.20
2010,08,14,01,15,23.10
2010,08,14,01,16,23.10
2010,08,14,01,17,23.10
2010,08,14,01,18,23.10
2010,08,14,01,19,23.10
2010,08,14,01,20,23.00
2010,08,14,01,21,23.10
2010,08,14,01,22,23.10
2010,08,14,01,23,23.10
2010,08,14,01,24,23.10
2010,08,14,01,25,23.10
2010,08,14,01,26,23.10
2010,08,14,01,27,23.10
2010,08,14,01,28,23.10
2010,08,14,01,29,23.20
2010,08,14,01,30,23.20
2010,08,14,01,31,23.20
2010,08,14,01,32,23.20
2010,08,14,01,33,23.30
2010,08,14,01,34,23.30
2010,08,14,01,35,23.30
2010,08,14,01,36,23.30
2010,08,14,01,37,23.30
2010,08,14,01,38,23.30
2010,08,14,01,39,23.30
2010,08,14,01,40,23.20
2010,08,14,01,41,23.20
2010,08,14,01,42,23.20
2010,08,14,01,43,23.10
2010,08,14,01,44,23.10
2010,08,14,01,45,23.10
2010,08,14,01,46,23.10
2010,08,14,01,47,23.00
2010,08,14,01,48,22.90
2010,08,14,01,49,22.90
2010,08,14,01,50,22.90
2010,08,14,01,51,22.90
2010,08,14,01,52,22.90
2010,08,14,01,53,22.90
2010,08,14,01,54,22.90
2010,08,14,01,55,22.80
2010,08,14,01,56,22.80
2010,08,14,01,57,22.80
2010,08,14,01,58,22.80
2010,08,14,01,59,22.80
2010,08,14,02,00,22.70
2010,08,14,02,01,22.70
2010,08,14,02,02,22.70
2010,08,14,02,03,22.70
2010,08,14,02,04,22.70
2010,08,14,02,05,22.60
2010,08,14,02,06,22.60
2010,08,14,02,07,22.60
2010,08,14,02,08,22.70
2010,08,14,02,09,22.70
2010,08,14,02,10,22.70
2010,08,14,02,11,22.70
2010,08,14,02,12,22.70
2010,08,14,02,13,22.80
2010,08,14,02,14,22.80
2010,08,14,02,15,22.90
2010,08,14,02,16,22.90
2010,08,14,02,17,22.90
2010,08,14,02,18,22.80
2010,08,14,02,19,22.80
2010,08,14,02,20,22.80
2010,08,14,02,21,22.70
2010,08,14,02,22,22.70
2010,08,14,02,23,22.70
2010,08,14,02,24,22.60
2010,08,14,02,25,22.60
2010,08,14,02,26,22.60
2010,08,14,02,27,22.50
2010,08,14,02,28,22.50
2010,08,14,02,29,22.50
2010,08,14,02,30,22.40
2010,08,14,02,31,22.40
2010,08,14,02,32,22.40
2010,08,14,02,33,22.40
2010,08,14,02,34,22.30
2010,08,14,02,35,22.30
2010,08,14,02,36,22.30
2010,08,14,02,37,22.20
2010,08,14,02,38,22.20
2010,08,14,02,39,22.20
2010,08,14,02,40,22.10
2010,08,14,02,41,22.10
2010,08,14,02,42,22.00
2010,08,14,02,43,21.90
2010,08,14,02,44,21.80
2010,08,14,02,45,21.70
2010,08,14,02,46,21.60
2010,08,14,02,47,21.50
2010,08,14,02,48,21.40
2010,08,14,02,49,21.30
2010,08,14,02,50,21.30
2010,08,14,02,51,21.20
2010,08,14,02,52,21.10
2010,08,14,02,53,21.10
2010,08,14,02,54,21.10
2010,08,14,02,55,21.10
2010,08,14,02,56,21.00
2010,08,14,02,57,21.00
2010,08,14,02,58,21.00
2010,08,14,02,59,21.00
2010,08,14,03,00,21.00
2010,08,14,03,01,21.00
2010,08,14,03,02,21.00
2010,08,14,03,03,21.00
2010,08,14,03,04,21.10
2010,08,14,03,05,21.10
2010,08,14,03,06,21.20
2010,08,14,03,07,21.30
2010,08,14,03,08,21.40
2010,08,14,03,09,21.40
2010,08,14,03,10,21.50
2010,08,14,03,11,21.60
2010,08,14,03,12,21.60
2010,08,14,03,13,21.60
2010,08,14,03,14,21.60
2010,08,14,03,15,21.70
2010,08,14,03,16,21.70
2010,08,14,03,17,21.80
2010,08,14,03,18,21.80
2010,08,14,03,19,21.80
2010,08,14,03,20,21.80
2010,08,14,03,21,21.80
2010,08,14,03,22,21.90
2010,08,14,03,23,21.90
2010,08,14,03,24,21.90
2010,08,14,03,25,21.90
2010,08,14,03,26,21.90
2010,08,14,03,27,21.90
2010,08,14,03,28,21.80
2010,08,14,03,29,21.80
2010,08,14,03,30,21.70
2010,08,14,03,31,21.60
2010,08,14,03,32,21.60
2010,08,14,03,33,21.50
2010,08,14,03,34,21.30
2010,08,14,03,35,21.30
2010,08,14,03,36,21.20
2010,08,14,03,37,21.10
2010,08,14,03,38,21.00
2010,08,14,03,39,21.00
2010,08,14,03,40,20.90
2010,08,14,03,41,20.80
2010,08,14,03,42,20.80
2010,08,14,03,43,20.70
2010,08,14,03,44,20.70
2010,08,14,03,45,20.70
2010,08,14,03,46,20.70
2010,08,14,03,47,20.80
2010,08,14,03,48,20.80
2010,08,14,03,49,20.90
2010,08,14,03,50,20.90
2010,08,14,03,51,21.00
2010,08,14,03,52,21.00
2010,08,14,03,53,21.10
2010,08,14,03,54,21.20
2010,08,14,03,55,21.30
2010,08,14,03,56,21.30
2010,08,14,03,57,21.30
2010,08,14,03,58,21.40
2010,08,14,03,59,21.40
2010,08,14,04,00,21.50
2010,08,14,04,01,21.60
2010,08,14,04,02,21.60
2010,08,14,04,03,21.60
2010,08,14,04,04,21.60
2010,08,14,04,05,21.60
2010,08,14,04,06,21.60
2010,08,14,04,07,21.50
2010,08,14,04,08,21.40
2010,08,14,04,09,21.40
2010,08,14,04,10,21.40
2010,08,14,04,11,21.40
2010,08,14,04,12,21.40
2010,08,14,04,13,21.40
2010,08,14,04,14,21.40
2010,08,14,04,15,21.40
2010,08,14,04,16,21.40
2010,08,14,04,17,21.40
2010,08,14,04,18,21.40
2010,08,14,04,19,21.60
2010,08,14,04,20,21.60
2010,08,14,04,21,21.60
2010,08,14,04,22,21.60
2010,08,14,04,23,21.60
2010,08,14,04,24,21.60
2010,08,14,04,25,21.70
2010,08,14,04,26,21.70
2010,08,14,04,27,21.70
2010,08,14,04,28,21.70
2010,08,14,04,29,21.70
2010,08,14,04,30,21.70
2010,08,14,04,31,21.70
2010,08,14,04,32,21.70
2010,08,14,04,33,21.70
2010,08,14,04,34,21.80
2010,08,14,04,35,21.80
2010,08,14,04,36,21.80
2010,08,14,04,37,21.80
2010,08,14,04,38,21.80
2010,08,14,04,39,21.80
2010,08,14,04,40,21.80
2010,08,14,04,41,21.80
2010,08,14,04,42,21.90
2010,08,14,04,43,21.90
2010,08,14,04,44,21.80
2010,08,14,04,45,21.80
2010,08,14,04,46,21.80
2010,08,14,04,47,21.80
2010,08,14,04,48,21.80
2010,08,14,04,49,21.80
2010,08,14,04,50,21.80
2010,08,14,04,51,21.80
2010,08,14,04,52,21.80
2010,08,14,04,53,21.90
2010,08,14,04,54,21.90
2010,08,14,04,55,21.90
2010,08,14,04,56,21.90
2010,08,14,04,57,21.90
2010,08,14,04,58,21.90
2010,08,14,04,59,21.90
2010,08,14,05,00,21.90
2010,08,14,05,01,21.90
2010,08,14,05,02,21.90
2010,08,14,05,03,21.90
2010,08,14,05,04,21.90
2010,08,14,05,05,21.90
2010,08,14,05,06,21.90
2010,08,14,05,07,21.90
2010,08,14,05,08,21.90
2010,08,14,05,09,21.80
2010,08,14,05,10,21.80
2010,08,14,05,11,21.80
2010,08,14,05,12,21.80
2010,08,14,05,13,21.80
2010,08,14,05,14,21.80
2010,08,14,05,15,21.80
2010,08,14,05,16,21.80
2010,08,14,05,17,21.80
2010,08,14,05,18,21.80
2010,08,14,05,19,21.80
2010,08,14,05,20,21.90
2010,08,14,05,21,21.90
2010,08,14,05,22,21.90
2010,08,14,05,23,21.90
2010,08,14,05,24,21.90
2010,08,14,05,25,22.00
2010,08,14,05,26,22.00
2010,08,14,05,27,22.00
2010,08,14,05,28,22.00
2010,08,14,05,29,22.00
2010,08,14,05,30,22.00
2010,08,14,05,31,22.00
2010,08,14,05,32,21.90
2010,08,14,05,33,21.90
2010,08,14,05,34,21.90
2010,08,14,05,35,21.80
2010,08,14,05,36,21.80
2010,08,14,05,37,21.70
2010,08,14,05,38,21.70
2010,08,14,05,39,21.60
2010,08,14,05,40,21.60
2010,08,14,05,41,21.60
2010,08,14,05,42,21.60
2010,08,14,05,43,21.40
2010,08,14,05,44,21.40
2010,08,14,05,45,21.30
2010,08,14,05,46,21.30
2010,08,14,05,47,21.30
2010,08,14,05,48,21.30
2010,08,14,05,49,21.20
2010,08,14,05,50,21.20
2010,08,14,05,51,21.10
2010,08,14,05,52,21.10
2010,08,14,05,53,21.10
2010,08,14,05,54,21.00
2010,08,14,05,55,21.00
2010,08,14,05,56,21.00
2010,08,14,05,57,20.90
2010,08,14,05,58,20.90
2010,08,14,05,59,20.90
2010,08,14,06,00,20.80
2010,08,14,06,01,20.80
2010,08,14,06,02,20.80
2010,08,14,06,03,20.80
2010,08,14,06,04,20.80
2010,08,14,06,05,20.80
2010,08,14,06,06,20.80
2010,08,14,06,07,20.90
2010,08,14,06,08,21.00
2010,08,14,06,09,21.00
2010,08,14,06,10,21.10
2010,08,14,06,11,21.10
2010,08,14,06,12,21.20
2010,08,14,06,13,21.20
2010,08,14,06,14,21.30
2010,08,14,06,15,21.30
2010,08,14,06,16,21.30
2010,08,14,06,17,21.40
2010,08,14,06,18,21.50
2010,08,14,06,19,21.60
2010,08,14,06,20,21.60
2010,08,14,06,21,21.60
2010,08,14,06,22,21.60
2010,08,14,06,23,21.70
2010,08,14,06,24,21.70
2010,08,14,06,25,21.70
2010,08,14,06,26,21.70
2010,08,14,06,27,21.70
2010,08,14,06,28,21.70
2010,08,14,06,29,21.60
2010,08,14,06,30,21.60
2010,08,14,06,31,21.60
2010,08,14,06,32,21.60
2010,08,14,06,33,21.60
2010,08,14,06,34,21.60
2010,08,14,06,35,21.60
2010,08,14,06,36,21.60
2010,08,14,06,37,21.60
2010,08,14,06,38,21.70
2010,08,14,06,39,21.70
2010,08,14,06,40,21.70
2010,08,14,06,41,21.80
2010,08,14,06,42,21.80
2010,08,14,06,43,21.90
2010,08,14,06,44,21.90
2010,08,14,06,45,21.90
2010,08,14,06,46,21.90
2010,08,14,06,47,21.90
2010,08,14,06,48,21.90
2010,08,14,06,49,22.00
2010,08,14,06,50,22.00
2010,08,14,06,51,22.00
2010,08,14,06,52,22.00
2010,08,14,06,53,22.00
2010,08,14,06,54,22.10
2010,08,14,06,55,22.10
2010,08,14,06,56,22.10
2010,08,14,06,57,22.10
2010,08,14,06,58,22.20
2010,08,14,06,59,22.20
2010,08,14,07,00,22.20
2010,08,14,07,01,22.20
2010,08,14,07,02,22.20
2010,08,14,07,03,22.20
2010,08,14,07,04,22.20
2010,08,14,07,05,22.20
2010,08,14,07,06,22.20
2010,08,14,07,07,22.20
2010,08,14,07,08,22.20
2010,08,14,07,09,22.20
2010,08,14,07,10,22.20
2010,08,14,07,11,22.20
2010,08,14,07,12,22.20
2010,08,14,07,13,22.30
2010,08,14,07,14,22.30
2010,08,14,07,15,22.30
2010,08,14,07,16,22.30
2010,08,14,07,17,22.30
2010,08,14,07,18,22.30
2010,08,14,07,19,22.30
2010,08,14,07,20,22.30
2010,08,14,07,21,22.30
2010,08,14,07,22,22.30
2010,08,14,07,23,22.20
2010,08,14,07,24,22.20
2010,08,14,07,25,22.10
2010,08,14,07,26,22.00
2010,08,14,07,27,22.00
2010,08,14,07,28,21.90
2010,08,14,07,29,21.80
2010,08,14,07,30,21.70
2010,08,14,07,31,21.60
2010,08,14,07,32,21.50
2010,08,14,07,33,21.40
2010,08,14,07,34,21.30
2010,08,14,07,35,21.10
2010,08,14,07,36,21.00
2010,08,14,07,37,20.90
2010,08,14,07,38,20.90
2010,08,14,07,39,20.80
2010,08,14,07,40,20.90
2010,08,14,07,41,20.90
2010,08,14,07,42,21.00
2010,08,14,07,43,21.00
2010,08,14,07,44,21.10
2010,08,14,07,45,21.20
2010,08,14,07,46,21.30
2010,08,14,07,47,21.30
2010,08,14,07,48,21.50
2010,08,14,07,49,21.60
2010,08,14,07,50,21.70
2010,08,14,07,51,21.80
2010,08,14,07,52,21.90
2010,08,14,07,53,22.00
2010,08,14,07,54,22.00
2010,08,14,07,55,22.10
2010,08,14,07,56,22.20
2010,08,14,07,57,22.30
2010,08,14,07,58,22.30
2010,08,14,07,59,22.30
2010,08,14,08,00,22.40
2010,08,14,08,01,22.40
2010,08,14,08,02,22.50
2010,08,14,08,03,22.60
2010,08,14,08,04,22.60
2010,08,14,08,05,22.60
2010,08,14,08,06,22.60
2010,08,14,08,07,22.70
2010,08,14,08,08,22.70
2010,08,14,08,09,22.70
2010,08,14,08,10,22.70
2010,08,14,08,11,22.70
2010,08,14,08,12,22.80
2010,08,14,08,13,22.80
2010,08,14,08,14,22.80
2010,08,14,08,15,22.90
2010,08,14,08,16,22.90
2010,08,14,08,17,23.00
2010,08,14,08,18,23.10
2010,08,14,08,19,23.10
2010,08,14,08,20,23.20
2010,08,14,08,21,23.20
2010,08,14,08,22,23.30
2010,08,14,08,23,23.30
2010,08,14,08,24,23.30
2010,08,14,08,25,23.30
2010,08,14,08,26,23.30
2010,08,14,08,27,23.40
2010,08,14,08,28,23.40
2010,08,14,08,29,23.40
2010,08,14,08,30,23.50
2010,08,14,08,31,23.60
2010,08,14,08,32,23.60
2010,08,14,08,33,23.60
2010,08,14,08,34,23.70
2010,08,14,08,35,23.70
2010,08,14,08,36,23.70
2010,08,14,08,37,23.70
2010,08,14,08,38,23.70
2010,08,14,08,39,23.70
2010,08,14,08,40,23.70
2010,08,14,08,41,23.70
2010,08,14,08,42,23.70
2010,08,14,08,43,23.70
2010,08,14,08,44,23.70
2010,08,14,08,45,23.70
2010,08,14,08,46,23.70
2010,08,14,08,47,23.70
2010,08,14,08,48,23.70
2010,08,14,08,49,23.70
2010,08,14,08,50,23.80
2010,08,14,08,51,23.80
2010,08,14,08,52,23.80
2010,08,14,08,53,23.80
2010,08,14,08,54,23.80
2010,08,14,08,55,23.80
2010,08,14,08,56,23.80
2010,08,14,08,57,23.80
2010,08,14,08,58,23.80
2010,08,14,08,59,23.80
2010,08,14,09,00,23.80
2010,08,14,09,01,24.00
2010,08,14,09,02,24.10
2010,08,14,09,03,24.10
2010,08,14,09,04,24.10
2010,08,14,09,05,24.10
2010,08,14,09,06,24.00
2010,08,14,09,07,23.90
2010,08,14,09,08,23.90
2010,08,14,09,09,23.90
2010,08,14,09,10,23.90
2010,08,14,09,11,23.80
2010,08,14,09,12,23.80
2010,08,14,09,13,23.80
2010,08,14,09,14,23.80
2010,08,14,09,15,23.90
2010,08,14,09,16,23.90
2010,08,14,09,17,23.90
2010,08,14,09,18,23.90
2010,08,14,09,19,23.90
2010,08,14,09,20,23.90
2010,08,14,09,21,23.90
2010,08,14,09,22,23.90
2010,08,14,09,23,23.90
2010,08,14,09,24,24.00
2010,08,14,09,25,24.10
2010,08,14,09,26,24.10
2010,08,14,09,27,24.10
2010,08,14,09,28,24.10
2010,08,14,09,29,24.10
2010,08,14,09,30,24.10
2010,08,14,09,31,24.10
2010,08,14,09,32,24.10
2010,08,14,09,33,24.10
2010,08,14,09,34,24.10
2010,08,14,09,35,24.10
2010,08,14,09,36,24.10
2010,08,14,09,37,24.10
2010,08,14,09,38,24.10
2010,08,14,09,39,24.10
2010,08,14,09,40,24.10
2010,08,14,09,41,24.10
2010,08,14,09,42,24.10
2010,08,14,09,43,24.10
2010,08,14,09,44,24.20
2010,08,14,09,45,24.20
2010,08,14,09,46,24.20
2010,08,14,09,47,24.20
2010,08,14,09,48,24.20
2010,08,14,09,49,24.30
2010,08,14,09,50,24.30
2010,08,14,09,51,24.30
2010,08,14,09,52,24.40
2010,08,14,09,53,24.40
2010,08,14,09,54,24.50
2010,08,14,09,55,24.50
2010,08,14,09,56,24.60
2010,08,14,09,57,24.60
2010,08,14,09,58,24.70
2010,08,14,09,59,24.70
2010,08,14,10,00,24.70
2010,08,14,10,01,24.70
2010,08,14,10,02,24.70
2010,08,14,10,03,24.60
2010,08,14,10,04,24.60
2010,08,14,10,05,24.60
2010,08,14,10,06,24.70
2010,08,14,10,07,24.70
2010,08,14,10,08,24.70
2010,08,14,10,09,24.70
2010,08,14,10,10,24.70
2010,08,14,10,11,24.70
2010,08,14,10,12,24.70
2010,08,14,10,13,24.60
2010,08,14,10,14,24.70
2010,08,14,10,15,24.70
2010,08,14,10,16,24.70
2010,08,14,10,17,24.60
2010,08,14,10,18,24.60
2010,08,14,10,19,24.60
2010,08,14,10,20,24.60
2010,08,14,10,21,24.60
2010,08,14,10,22,24.50
2010,08,14,10,23,24.50
2010,08,14,10,24,24.50
2010,08,14,10,25,24.50
2010,08,14,10,26,24.60
2010,08,14,10,27,24.60
2010,08,14,10,28,24.70
2010,08,14,10,29,24.80
2010,08,14,10,30,24.90
2010,08,14,10,31,25.00
2010,08,14,10,32,25.00
2010,08,14,10,33,25.10
2010,08,14,10,34,25.10
2010,08,14,10,35,25.10
2010,08,14,10,36,25.10
2010,08,14,10,37,25.00
2010,08,14,10,38,25.00
2010,08,14,10,39,24.90
2010,08,14,10,40,24.90
2010,08,14,10,41,24.90
2010,08,14,10,42,24.90
2010,08,14,10,43,24.90
2010,08,14,10,44,24.90
2010,08,14,10,45,24.90
2010,08,14,10,46,24.90
2010,08,14,10,47,24.90
2010,08,14,10,48,25.00
2010,08,14,10,49,25.10
2010,08,14,10,50,25.20
2010,08,14,10,51,25.20
2010,08,14,10,52,25.20
2010,08,14,10,53,25.20
2010,08,14,10,54,25.20
2010,08,14,10,55,25.30
2010,08,14,10,56,25.30
2010,08,14,10,57,25.40
2010,08,14,10,58,25.40
2010,08,14,10,59,25.30
2010,08,14,11,00,25.30
2010,08,14,11,01,25.20
2010,08,14,11,02,25.20
2010,08,14,11,03,25.20
2010,08,14,11,04,25.20
2010,08,14,11,05,25.20
2010,08,14,11,06,25.30
2010,08,14,11,07,25.30
2010,08,14,11,08,25.30
2010,08,14,11,09,25.20
2010,08,14,11,10,25.30
2010,08,14,11,11,25.30
2010,08,14,11,12,25.30
2010,08,14,11,13,25.20
2010,08,14,11,14,25.20
2010,08,14,11,15,25.20
2010,08,14,11,16,25.20
2010,08,14,11,17,25.20
2010,08,14,11,18,25.20
2010,08,14,11,19,25.20
2010,08,14,11,20,25.20
2010,08,14,11,21,25.20
2010,08,14,11,22,25.30
2010,08,14,11,23,25.30
2010,08,14,11,24,25.30
2010,08,14,11,25,25.40
2010,08,14,11,26,25.40
2010,08,14,11,27,25.40
2010,08,14,11,28,25.50
2010,08,14,11,29,25.50
2010,08,14,11,30,25.60
2010,08,14,11,31,25.60
2010,08,14,11,32,25.60
2010,08,14,11,33,25.60
2010,08,14,11,34,25.70
2010,08,14,11,35,25.70
2010,08,14,11,36,25.70
2010,08,14,11,37,25.70
2010,08,14,11,38,25.70
2010,08,14,11,39,25.70
2010,08,14,11,40,25.70
2010,08,14,11,41,25.60
2010,08,14,11,42,25.60
2010,08,14,11,43,25.60
2010,08,14,11,44,25.60
2010,08,14,11,45,25.60
2010,08,14,11,46,25.70
2010,08,14,11,47,25.80
2010,08,14,11,48,25.80
2010,08,14,11,49,25.80
2010,08,14,11,50,25.90
2010,08,14,11,51,25.80
2010,08,14,11,52,25.80
2010,08,14,11,53,25.70
2010,08,14,11,54,25.70
2010,08,14,11,55,25.70
2010,08,14,11,56,25.70
2010,08,14,11,57,25.80
2010,08,14,11,58,25.80
2010,08,14,11,59,25.80
2010,08,14,12,00,25.70
2010,08,14,12,01,25.70
2010,08,14,12,02,25.70
2010,08,14,12,03,25.70
2010,08,14,12,04,25.70
2010,08,14,12,05,25.70
2010,08,14,12,06,25.70
2010,08,14,12,07,25.70
2010,08,14,12,08,25.80
2010,08,14,12,09,25.80
2010,08,14,12,10,25.80
2010,08,14,12,11,25.90
2010,08,14,12,12,25.90
2010,08,14,12,13,25.80
2010,08,14,12,14,25.90
2010,08,14,12,15,25.90
2010,08,14,12,16,25.90
2010,08,14,12,17,25.80
2010,08,14,12,18,25.80
2010,08,14,12,19,25.90
2010,08,14,12,20,25.90
2010,08,14,12,21,25.90
2010,08,14,12,22,25.90
2010,08,14,12,23,26.00
2010,08,14,12,24,25.90
2010,08,14,12,25,25.90
2010,08,14,12,26,26.00
2010,08,14,12,27,26.00
2010,08,14,12,28,26.00
2010,08,14,12,29,25.90
2010,08,14,12,30,25.90
2010,08,14,12,31,25.90
2010,08,14,12,32,25.90
2010,08,14,12,33,25.90
2010,08,14,12,34,25.90
2010,08,14,12,35,25.90
2010,08,14,12,36,25.90
2010,08,14,12,37,25.90
2010,08,14,12,38,26.00
2010,08,14,12,39,26.00
2010,08,14,12,40,26.00
2010,08,14,12,41,26.00
2010,08,14,12,42,26.10
2010,08,14,12,43,26.10
2010,08,14,12,44,26.20
2010,08,14,12,45,26.30
2010,08,14,12,46,26.40
2010,08,14,12,47,26.40
2010,08,14,12,48,26.50
2010,08,14,12,49,26.60
2010,08,14,12,50,26.60
2010,08,14,12,51,26.60
2010,08,14,12,52,26.60
2010,08,14,12,53,26.60
2010,08,14,12,54,26.60
2010,08,14,12,55,26.70
2010,08,14,12,56,26.70
2010,08,14,12,57,26.60
2010,08,14,12,58,26.60
2010,08,14,12,59,26.60
2010,08,14,13,00,26.60
2010,08,14,13,01,26.60
2010,08,14,13,02,26.60
2010,08,14,13,03,26.70
2010,08,14,13,04,26.80
2010,08,14,13,05,26.80
2010,08,14,13,06,26.80
2010,08,14,13,07,26.90
2010,08,14,13,08,26.90
2010,08,14,13,09,27.00
2010,08,14,13,10,27.10
2010,08,14,13,11,27.10
2010,08,14,13,12,27.10
2010,08,14,13,13,27.10
2010,08,14,13,14,27.20
2010,08,14,13,15,27.30
2010,08,14,13,16,27.30
2010,08,14,13,17,27.30
2010,08,14,13,18,27.30
2010,08,14,13,19,27.30
2010,08,14,13,20,27.40
2010,08,14,13,21,27.40
2010,08,14,13,22,27.40
2010,08,14,13,23,27.40
2010,08,14,13,24,27.40
2010,08,14,13,25,27.40
2010,08,14,13,26,27.40
2010,08,14,13,27,27.40
2010,08,14,13,28,27.30
2010,08,14,13,29,27.30
2010,08,14,13,30,27.30
2010,08,14,13,31,27.30
2010,08,14,13,32,27.30
2010,08,14,13,33,27.30
2010,08,14,13,34,27.30
2010,08,14,13,35,27.30
2010,08,14,13,36,27.30
2010,08,14,13,37,27.30
2010,08,14,13,38,27.30
2010,08,14,13,39,27.40
2010,08,14,13,40,27.40
2010,08,14,13,41,27.40
2010,08,14,13,42,27.50
2010,08,14,13,43,27.50
2010,08,14,13,44,27.40
2010,08,14,13,45,27.60
2010,08,14,13,46,27.60
2010,08,14,13,47,27.70
2010,08,14,13,48,27.70
2010,08,14,13,49,27.70
2010,08,14,13,50,27.80
2010,08,14,13,51,27.80
2010,08,14,13,52,27.90
2010,08,14,13,53,28.00
2010,08,14,13,54,28.00
2010,08,14,13,55,27.90
2010,08,14,13,56,27.90
2010,08,14,13,57,27.90
2010,08,14,13,58,27.90
2010,08,14,13,59,27.90
2010,08,14,14,00,28.00
2010,08,14,14,01,28.00
2010,08,14,14,02,28.00
2010,08,14,14,03,28.00
2010,08,14,14,04,28.00
2010,08,14,14,05,27.90
2010,08,14,14,06,27.90
2010,08,14,14,07,27.90
2010,08,14,14,08,28.00
2010,08,14,14,09,28.00
2010,08,14,14,10,28.10
2010,08,14,14,11,28.20
2010,08,14,14,12,28.20
2010,08,14,14,13,28.30
2010,08,14,14,14,28.40
2010,08,14,14,15,28.50
2010,08,14,14,16,28.60
2010,08,14,14,17,28.60
2010,08,14,14,18,28.60
2010,08,14,14,19,28.60
2010,08,14,14,20,28.70
2010,08,14,14,21,28.70
2010,08,14,14,22,28.80
2010,08,14,14,23,28.90
2010,08,14,14,24,28.90
2010,08,14,14,25,28.90
2010,08,14,14,26,28.90
2010,08,14,14,27,28.90
2010,08,14,14,28,29.00
2010,08,14,14,29,29.10
2010,08,14,14,30,29.10
2010,08,14,14,31,29.20
2010,08,14,14,32,29.20
2010,08,14,14,33,29.20
2010,08,14,14,34,29.20
2010,08,14,14,35,29.20
2010,08,14,14,36,29.20
2010,08,14,14,37,29.20
2010,08,14,14,38,29.20
2010,08,14,14,39,29.10
2010,08,14,14,40,29.00
2010,08,14,14,41,28.90
2010,08,14,14,42,28.90
2010,08,14,14,43,28.90
2010,08,14,14,44,28.90
2010,08,14,14,45,29.10
2010,08,14,14,46,29.10
2010,08,14,14,47,29.20
2010,08,14,14,48,29.20
2010,08,14,14,49,29.20
2010,08,14,14,50,29.30
2010,08,14,14,51,29.30
2010,08,14,14,52,29.40
2010,08,14,14,53,29.40
2010,08,14,14,54,29.60
2010,08,14,14,55,29.60
2010,08,14,14,56,29.60
2010,08,14,14,57,29.60
2010,08,14,14,58,29.60
2010,08,14,14,59,29.60
2010,08,14,15,00,29.70
2010,08,14,15,01,29.70
2010,08,14,15,02,29.60
2010,08,14,15,03,29.70
2010,08,14,15,04,29.70
2010,08,14,15,05,29.60
2010,08,14,15,06,29.70
2010,08,14,15,07,29.70
2010,08,14,15,08,29.70
2010,08,14,15,09,29.80
2010,08,14,15,10,29.80
2010,08,14,15,11,29.70
2010,08,14,15,12,29.60
2010,08,14,15,13,29.60
2010,08,14,15,14,29.50
2010,08,14,15,15,29.50
2010,08,14,15,16,29.40
2010,08,14,15,17,29.40
2010,08,14,15,18,29.40
2010,08,14,15,19,29.40
2010,08,14,15,20,29.40
2010,08,14,15,21,29.40
2010,08,14,15,22,29.40
2010,08,14,15,23,29.40
2010,08,14,15,24,29.40
2010,08,14,15,25,29.50
2010,08,14,15,26,29.60
2010,08,14,15,27,29.70
2010,08,14,15,28,29.70
2010,08,14,15,29,29.70
2010,08,14,15,30,29.70
2010,08,14,15,31,29.70
2010,08,14,15,32,29.70
2010,08,14,15,33,29.70
2010,08,14,15,34,29.60
2010,08,14,15,35,29.50
2010,08,14,15,36,29.50
2010,08,14,15,37,29.60
2010,08,14,15,38,29.60
2010,08,14,15,39,29.70
2010,08,14,15,40,29.70
2010,08,14,15,41,29.80
2010,08,14,15,42,29.80
2010,08,14,15,43,29.90
2010,08,14,15,44,30.00
2010,08,14,15,45,30.10
2010,08,14,15,46,30.20
2010,08,14,15,47,30.20
2010,08,14,15,48,30.30
2010,08,14,15,49,30.30
2010,08,14,15,50,30.30
2010,08,14,15,51,30.30
2010,08,14,15,52,30.30
2010,08,14,15,53,30.30
2010,08,14,15,54,30.30
2010,08,14,15,55,30.30
2010,08,14,15,56,30.30
2010,08,14,15,57,30.30
2010,08,14,15,58,30.30
2010,08,14,15,59,30.30
2010,08,14,16,00,30.30
2010,08,14,16,01,30.30
2010,08,14,16,02,30.30
2010,08,14,16,03,30.40
2010,08,14,16,04,30.50
2010,08,14,16,05,30.60
2010,08,14,16,06,30.60
2010,08,14,16,07,30.70
2010,08,14,16,08,30.80
2010,08,14,16,09,30.90
2010,08,14,16,10,30.90
2010,08,14,16,11,30.90
2010,08,14,16,12,30.90
2010,08,14,16,13,30.90
2010,08,14,16,14,30.90
2010,08,14,16,15,30.90
2010,08,14,16,16,30.90
2010,08,14,16,17,30.80
2010,08,14,16,18,30.80
2010,08,14,16,19,30.70
2010,08,14,16,20,30.60
2010,08,14,16,21,30.60
2010,08,14,16,22,30.60
2010,08,14,16,23,30.60
2010,08,14,16,24,30.60
2010,08,14,16,25,30.60
2010,08,14,16,26,30.70
2010,08,14,16,27,30.80
2010,08,14,16,28,30.80
2010,08,14,16,29,30.90
2010,08,14,16,30,30.90
2010,08,14,16,31,30.90
2010,08,14,16,32,30.90
2010,08,14,16,33,30.80
2010,08,14,16,34,30.80
2010,08,14,16,35,30.70
2010,08,14,16,36,30.70
2010,08,14,16,37,30.70
2010,08,14,16,38,30.70
2010,08,14,16,39,30.70
2010,08,14,16,40,30.80
2010,08,14,16,41,30.90
2010,08,14,16,42,30.90
2010,08,14,16,43,30.90
2010,08,14,16,44,30.90
2010,08,14,16,45,31.00
2010,08,14,16,46,31.00
2010,08,14,16,47,31.10
2010,08,14,16,48,31.10
2010,08,14,16,49,31.20
2010,08,14,16,50,31.20
2010,08,14,16,51,31.20
2010,08,14,16,52,31.20
2010,08,14,16,53,31.20
2010,08,14,16,54,31.10
2010,08,14,16,55,31.10
2010,08,14,16,56,31.00
2010,08,14,16,57,30.90
2010,08,14,16,58,30.90
2010,08,14,16,59,30.90
2010,08,14,17,00,31.00
2010,08,14,17,01,31.00
2010,08,14,17,02,31.10
2010,08,14,17,03,31.10
2010,08,14,17,04,31.10
2010,08,14,17,05,31.20
2010,08,14,17,06,31.20
2010,08,14,17,07,31.30
2010,08,14,17,08,31.20
2010,08,14,17,09,31.10
2010,08,14,17,10,31.10
2010,08,14,17,11,31.00
2010,08,14,17,12,31.00
2010,08,14,17,13,30.90
2010,08,14,17,14,30.90
2010,08,14,17,15,30.90
2010,08,14,17,16,30.90
2010,08,14,17,17,30.90
2010,08,14,17,18,30.90
2010,08,14,17,19,30.90